OpenBCM V1.13 (Linux)

Packet Radio Mailbox

DB0FHN

[JN59NK Nuernberg]

 Login: GUEST





  
OZ1LQH > KEP      31.05.14 03:25l 79 Lines 3309 Bytes #999 (0) @ WW
BID : ARLK042
Read: DK3UZ GUEST DK7NR
Subj: ARLK042 Keplerian data
Path: DB0FHN<HB9EAS<DB0ZAV<DK0BLN<DB0ERF<DB0EAM<DB0NOS<DB0WAL<DB0IUZ<DB0GOS<
      ON0AR<OZ5BBS
Sent: 140530/2203Z @:OZ5BBS.FYN.DNK.EU #:45308 [Odense] $:ARLK042
From: OZ1LQH@OZ5BBS.FYN.DNK.EU
To  : KEP@WW

ZCZC SK42
QST de W1AW
Keplerian Bulletin 42  ARLK042
From ARRL Headquarters
Newington, CT  May 30, 2014
To all radio amateurs

SB KEP ARL ARLK042
ARLK042 Keplerian data

Special thanks to AMSAT-NA (AMSAT.ORG) for the following Keplerian
data.

Decode 2-line elsets with the following key:
1 AAAAAU 00  0  0 BBBBB.BBBBBBBB  .CCCCCCCC  00000-0  00000-0 0  DDDZ
2 AAAAA EEE.EEEE FFF.FFFF GGGGGGG HHH.HHHH III.IIII JJ.JJJJJJJJKKKKKZ
KEY: A-CATALOGNUM B-EPOCHTIME C-DECAY D-ELSETNUM E-INCLINATION F-RAAN
G-ECCENTRICITY H-ARGPERIGEE I-MNANOM J-MNMOTION K-ORBITNUM Z-CHECKSUM

0 AO-07
1 07530U 74089B   14149.85935569 -.00000021  00000-0  13984-3 0  9769
2 07530 101.4700 132.2952 0011689 333.1073 084.2925 12.53605123809228
0 AO-16
1 20439U 90005D   14149.79755907  .00000069  00000-0  41436-4 0   336
2 20439 098.5060 087.4803 0010474 207.5974 205.3445 14.32354185271850
0 AO-27
1 22825U 93061C   14150.43213198  .00000056  00000-0  39014-4 0  6786
2 22825 098.6606 096.6083 0008078 358.3508 149.0794 14.29718116 78248
0 FO-29
1 24278U 96046B   14149.73520632 -.00000065  00000-0 -29012-4 0  3833
2 24278 098.5124 166.1381 0350023 345.6994 073.5897 13.53024431878179
0 ISS
1 25544U 98067A   14150.64041815  .00006418  00000-0  11813-3 0  3901
2 25544 051.6483 186.5764 0003987 048.4580 044.7790 15.50533351888604
0 NO-44
1 26931U 01043C   14150.14160716  .00000068  00000-0  58410-4 0  6135
2 26931 067.0526 084.9899 0006236 283.1420 076.8985 14.30114673661021
0 SO-50
1 27607U 02058C   14149.76341692  .00000265  00000-0  60833-4 0  4064
2 27607 064.5574 288.5060 0045299 016.5272 343.7293 14.73757953614762
0 CO-55
1 27844U 03031E   14150.48272127  .00000119  00000-0  74204-4 0  9358
2 27844 098.6977 159.5100 0008854 332.8152 181.6190 14.21502524566068
0 RS-22
1 27939U 03042A   14150.40896493  .00000555  00000-0  11141-3 0  5311
2 27939 097.8088 325.4395 0013472 159.3450 200.8329 14.65191885570124
0 VO-52
1 28650U 05017B   14149.62950844  .00000724  00000-0  89457-4 0  7506
2 28650 097.5596 155.5249 0024507 215.5623 144.3961 14.85446964490470
0 CO-58
1 28895U 05043F   14149.52453070  .00000367  00000-0  82014-4 0  7790
2 28895 097.8367 352.3610 0018684 072.5441 287.7802 14.61873857457521
0 CO-65
1 32785U 08021C   14150.45812872  .00000740  00000-0  92156-4 0  9622
2 32785 097.7009 202.3364 0012720 242.6264 242.3503 14.85262692329397
0 COMPASS 1
1 32787U 08021E   14150.14291521  .00001448  00000-0  16411-3 0  9425
2 32787 097.7029 204.1904 0012900 235.3041 124.6961 14.87838222329506
0 DO-64
1 32789U 08021G   14150.47236762  .00003627  00000-0  35182-3 0  9695
2 32789 097.7222 211.8070 0011573 215.9840 275.3500 14.93238832329857
0 RS-30
1 32953U 08025A   14150.52358879  .00000010  00000-0  00000+0 0  9658
2 32953 082.5045 212.1926 0018885 190.6913 169.3761 12.43047485273069
0 KKS-1
1 33499U 09002H   14149.83074947  .00000452  00000-0  77876-4 0  3691
2 33499 098.1872 277.3924 0008435 331.3953 148.9387 14.73370224287141
0 AO-73
1 39445U 13066AF  14150.15362056  .00001145  00000-0  16025-3 0  1541
2 39445 097.7767 221.4186 0060817 302.5575 056.9724 14.78231527 26374

Keplerian bulletins are transmitted twice weekly from W1AW.  The
next scheduled transmission of these data will be Tuesday, June 3,
2014, at 2230z on Baudot and BPSK31.
NNNN


Read previous mail | Read next mail


 14.07.2026 22:16:39lGo back Go up